Вернуться в каталог

STARLINK-1523

АктивенСвязьVLEO
NORAD 46028·PAYLOAD·🇺🇸 United States

Запущен Aug 7, 2020 с Cape Canaveral Space Force Station

Loading…

Ближайшие Пролёты (ближайшие 24 часа)

TLE

СвежийSource: CelesTrak SupGP

Эпоха: Sep 14, 2026, 13:55 UTC

1 46028C 20055B   26257.58034722  .00068930  00000+0  18410-2 0  2573
2 46028  53.1576 326.7361 0001092 339.9703 104.6100 15.37500990    15

Отслеживайте STARLINK-1523 в реальном времени с AllMySat

Download on the App Store